Hourly Data Report for October 04, 2017

All times are specified in Local Standard Time (LST). Add 1 hour to adjust for Daylight Saving Time where and when it is observed.

EMERSON AUTO
MANITOBA

49°00'00.000" N
97°14'15.000" W
242.00 m
5020881
71560
WEX

Download Data

Hourly Data (October 2017)
Hourly Data Report for October 4, 2017
Temp Definition
°C
Dew Point Temp Definition
°C
Rel Hum Definition
%
Wind Dir Definition
10's deg

Wind Spd Definition
km/h
Visibility Definition
km
Stn Press Definition
kPa
Hmdx Definition


Wind Chill Definition


Weather Definition


TIME
00:00 6.0 3.8 86 27 9   99.19     LegendNANA
01:00 7.2 4.4 82 27 8   99.23     LegendNANA
02:00 7.6 4.0 78 27 8   99.29     LegendNANA
03:00 7.7 3.7 76 26 9   99.30     LegendNANA
04:00 7.5 3.5 76 25 11   99.34     LegendNANA
05:00 7.6 4.9 83 25 9   99.35     LegendNANA
06:00 7.9 5.7 86 26 12   99.38     LegendNANA
07:00 7.9 5.0 82 26 17   99.42     LegendNANA
08:00 8.1 4.3 77 27 18   99.45     LegendNANA
09:00 8.8 4.7 76 26 24   99.47     LegendNANA
10:00 9.6 3.5 66 27 24   99.46     LegendNANA
11:00 11.1 3.9 61 26 19   99.44     LegendNANA
12:00 11.1 3.7 60 26 16   99.38     LegendNANA
13:00 12.9 4.2 55 24 20   99.30     LegendNANA
14:00 12.3 4.3 58 23 25   99.26     LegendNANA
15:00 12.3 3.8 56 23 23   99.18     LegendNANA
16:00 12.4 3.7 55 23 20   99.13     LegendNANA
17:00 11.9 3.6 57 24 19   99.08     LegendNANA
18:00 9.5 3.7 67 26 12   99.09     LegendNANA
19:00 5.3 2.4 82 23 10   99.10     LegendNANA
20:00 4.4 2.0 84 22 9   99.12     LegendNANA
21:00 3.6 2.1 90 23 10   99.13     LegendNANA
22:00 2.5 1.2 91 22 12   99.08     LegendNANA
23:00 1.8 1.0 94 22 10   99.07     LegendNANA

Notes on Data Quality.

Legend

  • E = Estimated
  • M = Missing
  • NA = Not Available
  • ‡ = Partner data that is not subject to review by the National Climate Archives
Date modified: